This demonstration page uses our WeatherBlox Daily Observations layout. Learn more.

Left ArrowRight Arrow

38.83388, -104.82136

Hourly Observations for March 20, 2018

Temp ( °F °C ) Dew Point ( °F °C ) Humidity (%) Winds ( mph kmh ) Pressure ( in mb ) Visibility ( mi km ) Precip ( " mm )
12:58 am 00:58 Clear 27 -2.8 22 -5.5 82 82 Calm 29.78 1009 10 16 0.00 0.00
1:58 am 01:58 Clear 27 -3 20 -6.7 76 76 NW 3 6 29.77 1008 10 16 0.00 0.00
2:58 am 02:58 Clear 25 -3.9 20 -6.4 83 83 Calm 29.78 1009 10 16 0.00 0.00
3:58 am 03:58 Clear 26 -3.3 21 -6.2 81 81 S 3 6 29.75 1008 10 16 0.00 0.00
4:58 am 04:58 Clear 25 -4.1 19 -7.4 78 78 Calm 29.77 1008 10 16 0.00 0.00
5:58 am 05:58 Mostly Clear 26 -3.5 17 -8.5 69 69 Calm 29.77 1008 10 16 0.00 0.00
6:58 am 06:58 Clear 26 -3.4 17 -8.3 69 69 Calm 29.77 1008 10 16 0.00 0.00
7:58 am 07:58 Sunny 31 -0.5 12 -11.1 45 45 SSE 7 11 29.75 1007 10 16 0.00 0.00
8:58 am 08:58 Sunny 33 0.3 9 -12.9 37 37 SSE 5 7 29.78 1008 10 16 0.00 0.00
9:58 am 09:58 Sunny 36 2.2 12 -11.1 37 37 SE 5 7 29.76 1008 10 16 0.00 0.00
10:58 am 10:58 Sunny 38 3.6 9 -12.6 30 30 SE 6 9 29.74 1007 10 16 0.00 0.00
11:58 am 11:58 Sunny 42 5.7 10 -12 27 27 SE 10 17 29.70 1006 10 16 0.00 0.00
12:58 pm 12:58 Mostly Sunny 44 6.4 10 -12.4 25 25 SE 9 15 29.69 1005 10 16 0.00 0.00
1:58 pm 13:58 Mostly Cloudy 46 7.7 7 -13.7 20 20 SSE 6 9 29.65 1004 10 16 0.00 0.00
2:58 pm 14:58 Mostly Sunny 46 7.5 10 -12.2 23 23 NE 7 11 29.67 1005 10 16 0.00 0.00
3:58 pm 15:58 Partly Cloudy 46 7.6 12 -11.3 25 25 ENE 8 13 29.67 1005 10 16 0.00 0.00
4:58 pm 16:58 Partly Cloudy 43 6.2 11 -11.8 26 26 ENE 8 13 29.70 1006 10 16 0.00 0.00
5:58 pm 17:58 Partly Cloudy 41 5.1 10 -12.1 28 28 N 3 6 29.71 1006 10 16 0.00 0.00
6:58 pm 18:58 Mostly Cloudy 40 4.5 11 -11.6 30 30 Calm 29.74 1007 10 16 0.00 0.00
7:58 pm 19:58 Clear 39 3.9 11 -11.7 31 31 SSW 3 6 29.73 1007 10 16 0.00 0.00
8:58 pm 20:58 Partly Cloudy 37 3 12 -10.9 36 36 Calm 29.75 1008 10 16 0.00 0.00
9:58 pm 21:58 Clear 39 4 9 -12.8 28 28 S 8 13 29.75 1008 10 16 0.00 0.00
10:58 pm 22:58 Clear 37 2.9 9 -12.8 31 31 S 10 17 29.75 1008 10 16 0.00 0.00
11:58 pm 23:58 Clear 36 2.1 8 -13.4 31 31 S 9 15 29.75 1007 10 16 0.00 0.00

Powered by AerisWeather